Time,TemperatureF,DewpointF,PressureIn,WindDirection,WindDirectionDegrees,WindSpeedMPH,WindSpeedGustMPH,Humidity,HourlyPrecipIn,Conditions,Clouds,dailyrainin,SoftwareType,DateUTC
2013-01-22 00:04:00,29.8,28.8,29.62,East,97,0.0,0.0,96,0.00,,---,0.00,VWS V14.01,2013-01-22 08:04:00,
2013-01-22 00:09:00,29.8,28.8,29.62,East,97,0.0,0.0,96,0.00,,---,0.00,VWS V14.01,2013-01-22 08:09:00,
2013-01-22 00:14:00,29.8,28.8,29.62,East,97,0.0,0.0,96,0.00,,---,0.00,VWS V14.01,2013-01-22 08:14:00,
2013-01-22 00:19:00,29.8,28.8,29.62,East,97,0.0,0.0,96,0.00,,---,0.00,VWS V14.01,2013-01-22 08:19:00,
2013-01-22 00:24:00,29.8,28.8,29.62,East,97,0.0,0.0,96,0.00,,---,0.00,VWS V14.01,2013-01-22 08:24:00,
2013-01-22 00:29:00,30.0,29.0,29.62,East,97,0.0,0.0,96,0.00,,---,0.00,VWS V14.01,2013-01-22 08:29:00,
2013-01-22 00:34:00,29.8,28.8,29.62,ENE,77,2.2,2.2,96,0.00,,---,0.00,VWS V14.01,2013-01-22 08:34:00,
2013-01-22 00:39:00,29.8,28.8,29.62,East,79,0.0,0.0,96,0.00,,---,0.00,VWS V14.01,2013-01-22 08:39:00,
2013-01-22 00:44:00,29.8,28.8,29.62,SSE,151,2.7,2.7,96,0.00,,---,0.00,VWS V14.01,2013-01-22 08:44:00,
2013-01-22 00:49:00,29.8,28.8,29.62,ENE,75,2.2,2.2,96,0.00,,---,0.00,VWS V14.01,2013-01-22 08:49:00,
2013-01-22 00:54:00,29.8,28.8,29.62,ESE,108,0.0,0.0,96,0.00,,---,0.00,VWS V14.01,2013-01-22 08:54:00,
2013-01-22 00:59:00,29.8,28.8,29.62,ESE,109,0.0,0.0,96,0.00,,---,0.00,VWS V14.01,2013-01-22 08:59:00,
2013-01-22 01:03:00,29.3,28.3,29.62,ESE,109,0.0,0.0,96,0.00,,---,0.00,VWS V14.01,2013-01-22 09:03:00,
2013-01-22 01:09:00,29.1,28.1,29.62,ESE,109,0.0,0.0,96,0.00,,---,0.00,VWS V14.01,2013-01-22 09:09:00,
2013-01-22 01:14:00,29.1,28.1,29.62,ESE,109,0.0,0.0,96,0.00,,---,0.00,VWS V14.01,2013-01-22 09:14:00,
2013-01-22 01:19:00,29.3,28.3,29.62,ESE,109,0.0,0.0,96,0.00,,---,0.00,VWS V14.01,2013-01-22 09:19:00,
2013-01-22 01:24:00,29.3,28.3,29.62,ESE,109,0.0,0.0,96,0.00,,---,0.00,VWS V14.01,2013-01-22 09:24:00,
2013-01-22 01:29:00,29.3,28.3,29.62,ESE,109,0.0,0.0,96,0.00,,---,0.00,VWS V14.01,2013-01-22 09:29:00,
2013-01-22 01:34:00,29.1,28.1,29.62,ESE,109,0.0,0.0,96,0.00,,---,0.00,VWS V14.01,2013-01-22 09:34:00,
2013-01-22 01:38:00,28.9,27.9,29.62,ESE,109,0.0,0.0,96,0.00,,---,0.00,VWS V14.01,2013-01-22 09:38:00,
2013-01-22 01:43:00,28.8,27.8,29.62,ESE,109,0.0,0.0,96,0.00,,---,0.00,VWS V14.01,2013-01-22 09:43:00,
2013-01-22 01:48:00,28.8,27.8,29.62,ESE,109,0.0,0.0,96,0.00,,---,0.00,VWS V14.01,2013-01-22 09:48:00,
2013-01-22 01:53:00,28.6,27.6,29.62,ESE,109,0.0,0.0,96,0.00,,---,0.00,VWS V14.01,2013-01-22 09:53:00,
2013-01-22 01:58:00,28.8,27.8,29.62,ESE,108,0.0,0.0,96,0.00,,---,0.00,VWS V14.01,2013-01-22 09:58:00,
2013-01-22 02:03:00,28.8,27.8,29.62,ESE,109,0.0,0.0,96,0.00,,---,0.00,VWS V14.01,2013-01-22 10:03:00,
2013-01-22 02:08:00,28.6,27.3,29.62,ESE,109,0.0,0.0,95,0.00,,---,0.00,VWS V14.01,2013-01-22 10:08:00,
2013-01-22 02:13:00,28.6,27.3,29.62,ESE,109,0.0,0.0,95,0.00,,---,0.00,VWS V14.01,2013-01-22 10:13:00,
2013-01-22 02:18:00,28.6,27.3,29.62,ESE,109,0.0,0.0,95,0.00,,---,0.00,VWS V14.01,2013-01-22 10:18:00,
2013-01-22 02:23:00,28.6,27.3,29.62,ESE,109,0.0,0.0,95,0.00,,---,0.00,VWS V14.01,2013-01-22 10:23:00,
2013-01-22 02:28:00,28.4,27.4,29.62,ESE,109,0.0,0.0,96,0.00,,---,0.00,VWS V14.01,2013-01-22 10:28:00,
2013-01-22 02:33:00,28.6,27.3,29.62,ESE,108,0.0,0.0,95,0.00,,---,0.00,VWS V14.01,2013-01-22 10:33:00,
2013-01-22 02:38:00,28.4,27.4,29.62,ESE,109,0.0,0.0,96,0.00,,---,0.00,VWS V14.01,2013-01-22 10:38:00,
2013-01-22 02:43:00,28.6,27.3,29.62,ESE,109,0.0,0.0,95,0.00,,---,0.00,VWS V14.01,2013-01-22 10:43:00,
2013-01-22 02:48:00,28.0,27.0,29.62,ESE,109,0.0,0.0,96,0.00,,---,0.00,VWS V14.01,2013-01-22 10:48:00,
2013-01-22 02:53:00,28.2,27.2,29.62,ESE,109,0.0,0.0,96,0.00,,---,0.00,VWS V14.01,2013-01-22 10:53:00,
2013-01-22 02:58:00,28.2,27.2,29.62,ESE,109,0.0,0.0,96,0.00,,---,0.00,VWS V14.01,2013-01-22 10:58:00,
2013-01-22 03:03:00,28.4,27.4,29.62,ESE,109,0.0,0.0,96,0.00,,---,0.00,VWS V14.01,2013-01-22 11:03:00,
2013-01-22 03:08:00,28.2,27.0,29.62,ESE,109,0.0,0.0,95,0.00,,---,0.00,VWS V14.01,2013-01-22 11:08:00,
2013-01-22 03:13:00,27.9,26.6,29.62,ESE,109,0.0,0.0,95,0.00,,---,0.00,VWS V14.01,2013-01-22 11:13:00,
2013-01-22 03:18:00,27.9,26.6,29.62,ESE,109,0.0,0.0,95,0.00,,---,0.00,VWS V14.01,2013-01-22 11:18:00,
2013-01-22 03:23:00,27.7,26.4,29.62,ESE,109,0.0,0.0,95,0.00,,---,0.00,VWS V14.01,2013-01-22 11:23:00,
2013-01-22 03:28:00,27.9,26.6,29.62,ESE,109,0.0,0.0,95,0.00,,---,0.00,VWS V14.01,2013-01-22 11:28:00,
2013-01-22 03:33:00,27.7,26.4,29.62,ESE,109,0.0,0.0,95,0.00,,---,0.00,VWS V14.01,2013-01-22 11:33:00,
2013-01-22 03:38:00,27.7,26.4,29.62,ESE,109,0.0,0.0,95,0.00,,---,0.00,VWS V14.01,2013-01-22 11:38:00,
2013-01-22 03:43:00,27.5,26.3,29.62,ESE,109,0.0,0.0,95,0.00,,---,0.00,VWS V14.01,2013-01-22 11:43:00,
2013-01-22 03:48:00,27.5,26.3,29.62,ESE,109,0.0,0.0,95,0.00,,---,0.00,VWS V14.01,2013-01-22 11:48:00,
2013-01-22 03:53:00,27.7,26.4,29.62,ESE,109,0.0,0.0,95,0.00,,---,0.00,VWS V14.01,2013-01-22 11:53:00,
2013-01-22 03:58:00,27.7,26.4,29.62,ESE,109,0.0,0.0,95,0.00,,---,0.00,VWS V14.01,2013-01-22 11:58:00,
2013-01-22 04:03:00,27.7,26.4,29.62,ESE,109,0.0,0.0,95,0.00,,---,0.00,VWS V14.01,2013-01-22 12:03:00,
2013-01-22 04:08:00,27.9,26.6,29.62,ESE,109,0.0,0.0,95,0.00,,---,0.00,VWS V14.01,2013-01-22 12:08:00,
2013-01-22 04:13:00,27.7,26.4,29.62,ESE,109,0.0,0.0,95,0.00,,---,0.00,VWS V14.01,2013-01-22 12:13:00,
2013-01-22 04:18:00,27.7,26.4,29.62,ESE,109,0.0,0.0,95,0.00,,---,0.00,VWS V14.01,2013-01-22 12:18:00,
2013-01-22 04:23:00,27.7,26.4,29.62,ESE,109,0.0,0.0,95,0.00,,---,0.00,VWS V14.01,2013-01-22 12:23:00,
2013-01-22 04:28:00,27.7,26.4,29.62,ESE,109,0.0,0.0,95,0.00,,---,0.00,VWS V14.01,2013-01-22 12:28:00,
2013-01-22 04:33:00,27.5,26.3,29.62,ESE,109,0.0,0.0,95,0.00,,---,0.00,VWS V14.01,2013-01-22 12:33:00,
2013-01-22 04:38:00,27.5,26.3,29.62,ESE,109,0.0,0.0,95,0.00,,---,0.00,VWS V14.01,2013-01-22 12:38:00,
2013-01-22 04:43:00,27.5,26.3,29.62,ESE,109,0.0,0.0,95,0.00,,---,0.00,VWS V14.01,2013-01-22 12:43:00,
2013-01-22 04:48:00,27.3,26.1,29.59,ESE,109,0.0,0.0,95,0.00,,---,0.00,VWS V14.01,2013-01-22 12:48:00,
2013-01-22 04:53:00,27.3,26.1,29.59,ESE,109,0.0,0.0,95,0.00,,---,0.00,VWS V14.01,2013-01-22 12:53:00,
2013-01-22 04:58:00,27.0,25.7,29.59,ESE,109,0.0,0.0,95,0.00,,---,0.00,VWS V14.01,2013-01-22 12:58:00,
2013-01-22 05:03:00,26.8,25.5,29.59,ESE,109,0.0,0.0,95,0.00,,---,0.00,VWS V14.01,2013-01-22 13:03:00,
2013-01-22 05:09:00,26.8,25.5,29.59,ESE,109,0.0,0.0,95,0.00,,---,0.00,VWS V14.01,2013-01-22 13:09:00,
2013-01-22 05:14:00,26.4,25.2,29.59,ESE,109,0.0,0.0,95,0.00,,---,0.00,VWS V14.01,2013-01-22 13:14:00,
2013-01-22 05:19:00,26.4,25.2,29.56,ESE,109,0.0,0.0,95,0.00,,---,0.00,VWS V14.01,2013-01-22 13:19:00,
2013-01-22 05:24:00,26.1,24.8,29.56,ESE,109,0.0,0.0,95,0.00,,---,0.00,VWS V14.01,2013-01-22 13:24:00,
2013-01-22 05:29:00,26.1,24.8,29.56,ESE,109,0.0,0.0,95,0.00,,---,0.00,VWS V14.01,2013-01-22 13:29:00,
2013-01-22 05:34:00,26.1,24.6,29.59,ESE,109,0.0,0.0,94,0.00,,---,0.00,VWS V14.01,2013-01-22 13:34:00,
2013-01-22 05:39:00,26.1,24.6,29.59,ESE,109,0.0,0.0,94,0.00,,---,0.00,VWS V14.01,2013-01-22 13:39:00,
2013-01-22 05:44:00,26.1,24.8,29.59,ESE,109,0.0,0.0,95,0.00,,---,0.00,VWS V14.01,2013-01-22 13:44:00,
2013-01-22 05:49:00,25.9,24.4,29.59,ESE,109,0.0,0.0,94,0.00,,---,0.00,VWS V14.01,2013-01-22 13:49:00,
2013-01-22 05:54:00,25.9,24.4,29.59,ESE,109,0.0,0.0,94,0.00,,---,0.00,VWS V14.01,2013-01-22 13:54:00,
2013-01-22 05:59:00,25.7,24.2,29.59,ESE,109,0.0,0.0,94,0.00,,---,0.00,VWS V14.01,2013-01-22 13:59:00,
2013-01-22 06:04:00,25.7,24.2,29.59,ESE,109,0.0,0.0,94,0.00,,---,0.00,VWS V14.01,2013-01-22 14:04:00,
2013-01-22 06:09:00,25.5,24.0,29.59,ESE,109,0.0,0.0,94,0.00,,---,0.00,VWS V14.01,2013-01-22 14:09:00,
2013-01-22 06:14:00,25.3,23.9,29.59,ESE,108,0.0,0.0,94,0.00,,---,0.00,VWS V14.01,2013-01-22 14:14:00,
2013-01-22 06:19:00,25.3,23.9,29.59,ESE,109,0.0,0.0,94,0.00,,---,0.00,VWS V14.01,2013-01-22 14:19:00,
2013-01-22 06:24:00,25.3,23.9,29.59,ESE,109,0.0,0.0,94,0.00,,---,0.00,VWS V14.01,2013-01-22 14:24:00,
2013-01-22 06:29:00,25.3,23.9,29.59,ESE,109,0.0,0.0,94,0.00,,---,0.00,VWS V14.01,2013-01-22 14:29:00,
2013-01-22 06:34:00,25.0,23.5,29.56,ESE,109,0.0,0.0,94,0.00,,---,0.00,VWS V14.01,2013-01-22 14:34:00,
2013-01-22 06:39:00,25.0,23.5,29.56,ESE,109,0.0,0.0,94,0.00,,---,0.00,VWS V14.01,2013-01-22 14:39:00,
2013-01-22 06:44:00,25.0,23.5,29.56,ESE,109,0.0,0.0,94,0.00,,---,0.00,VWS V14.01,2013-01-22 14:44:00,
2013-01-22 06:49:00,25.0,23.5,29.59,ESE,109,0.0,0.0,94,0.00,,---,0.00,VWS V14.01,2013-01-22 14:49:00,
2013-01-22 06:54:00,25.2,23.7,29.59,ESE,109,0.0,0.0,94,0.00,,---,0.00,VWS V14.01,2013-01-22 14:54:00,
2013-01-22 06:59:00,25.2,23.7,29.59,ESE,109,0.0,0.0,94,0.00,,---,0.00,VWS V14.01,2013-01-22 14:59:00,
2013-01-22 07:04:00,25.0,23.5,29.59,ESE,109,0.0,0.0,94,0.00,,---,0.00,VWS V14.01,2013-01-22 15:04:00,
2013-01-22 07:09:00,25.0,23.5,29.59,ESE,109,0.0,0.0,94,0.00,,---,0.00,VWS V14.01,2013-01-22 15:09:00,
2013-01-22 07:14:00,24.8,23.3,29.59,ESE,109,0.0,0.0,94,0.00,,---,0.00,VWS V14.01,2013-01-22 15:14:00,
2013-01-22 07:19:00,24.8,23.3,29.56,ESE,109,0.0,0.0,94,0.00,,---,0.00,VWS V14.01,2013-01-22 15:19:00,
2013-01-22 07:24:00,24.6,23.1,29.56,ESE,109,0.0,0.0,94,0.00,,---,0.00,VWS V14.01,2013-01-22 15:24:00,
2013-01-22 07:29:00,24.4,23.0,29.56,ESE,109,0.0,0.0,94,0.00,,---,0.00,VWS V14.01,2013-01-22 15:29:00,
2013-01-22 07:34:00,24.4,23.0,29.56,ESE,109,0.0,0.0,94,0.00,,---,0.00,VWS V14.01,2013-01-22 15:34:00,
2013-01-22 07:39:00,24.4,23.0,29.56,ESE,109,0.0,0.0,94,0.00,,---,0.00,VWS V14.01,2013-01-22 15:39:00,
2013-01-22 07:44:00,24.4,23.0,29.56,ESE,109,0.0,0.0,94,0.00,,---,0.00,VWS V14.01,2013-01-22 15:44:00,
2013-01-22 07:49:00,24.4,23.0,29.56,ESE,109,0.0,0.0,94,0.00,,---,0.00,VWS V14.01,2013-01-22 15:49:00,
2013-01-22 07:54:00,24.4,23.0,29.56,ESE,109,0.0,0.0,94,0.00,,---,0.00,VWS V14.01,2013-01-22 15:54:00,
2013-01-22 07:59:00,24.4,23.0,29.56,ESE,109,0.0,0.0,94,0.00,,---,0.00,VWS V14.01,2013-01-22 15:59:00,
2013-01-22 08:04:00,24.4,23.0,29.56,ESE,108,0.0,0.0,94,0.00,,---,0.00,VWS V14.01,2013-01-22 16:04:00,
2013-01-22 08:09:00,24.4,23.0,29.56,ESE,109,0.0,0.0,94,0.00,,---,0.00,VWS V14.01,2013-01-22 16:09:00,
2013-01-22 08:14:00,24.4,23.0,29.56,ESE,109,0.0,0.0,94,0.00,,---,0.00,VWS V14.01,2013-01-22 16:14:00,
2013-01-22 08:19:00,24.4,23.0,29.56,ESE,109,0.0,0.0,94,0.00,,---,0.00,VWS V14.01,2013-01-22 16:19:00,
2013-01-22 08:24:00,24.4,23.0,29.56,ESE,109,0.0,0.0,94,0.00,,---,0.00,VWS V14.01,2013-01-22 16:24:00,
2013-01-22 08:29:00,24.4,23.0,29.56,ESE,109,0.0,0.0,94,0.00,,---,0.00,VWS V14.01,2013-01-22 16:29:00,
2013-01-22 08:34:00,24.4,23.0,29.56,ESE,109,0.0,0.0,94,0.00,,---,0.00,VWS V14.01,2013-01-22 16:34:00,
2013-01-22 08:39:00,24.4,23.0,29.56,ESE,109,0.0,0.0,94,0.00,,---,0.00,VWS V14.01,2013-01-22 16:39:00,
2013-01-22 08:44:00,24.8,23.3,29.56,ESE,109,0.0,0.0,94,0.00,,---,0.00,VWS V14.01,2013-01-22 16:44:00,
2013-01-22 08:49:00,24.8,23.3,29.56,ESE,109,0.0,0.0,94,0.00,,---,0.00,VWS V14.01,2013-01-22 16:49:00,
2013-01-22 08:54:00,25.0,23.5,29.56,ESE,109,0.0,0.0,94,0.00,,---,0.00,VWS V14.01,2013-01-22 16:54:00,
2013-01-22 08:59:00,25.0,23.5,29.56,ESE,109,0.0,0.0,94,0.00,,---,0.00,VWS V14.01,2013-01-22 16:59:00,
2013-01-22 09:04:00,25.3,23.9,29.56,ESE,109,0.0,0.0,94,0.00,,---,0.00,VWS V14.01,2013-01-22 17:04:00,
2013-01-22 09:09:00,25.5,24.0,29.56,ESE,108,0.0,0.0,94,0.00,,---,0.00,VWS V14.01,2013-01-22 17:09:00,
2013-01-22 09:14:00,25.5,24.0,29.56,ESE,108,0.0,0.0,94,0.00,,---,0.00,VWS V14.01,2013-01-22 17:14:00,
2013-01-22 09:19:00,26.1,24.6,29.56,ESE,109,0.0,0.0,94,0.00,,---,0.00,VWS V14.01,2013-01-22 17:19:00,
2013-01-22 09:24:00,26.1,24.6,29.56,ESE,109,0.0,0.0,94,0.00,,---,0.00,VWS V14.01,2013-01-22 17:24:00,
2013-01-22 09:29:00,26.4,25.2,29.56,ESE,109,0.0,0.0,95,0.00,,---,0.00,VWS V14.01,2013-01-22 17:29:00,
2013-01-22 09:34:00,26.8,25.3,29.56,ESE,109,0.0,0.0,94,0.00,,---,0.00,VWS V14.01,2013-01-22 17:34:00,
2013-01-22 09:39:00,27.0,25.7,29.56,ESE,109,0.0,0.0,95,0.00,,---,0.00,VWS V14.01,2013-01-22 17:39:00,
2013-01-22 09:44:00,27.0,25.7,29.56,ESE,109,0.0,0.0,95,0.00,,---,0.00,VWS V14.01,2013-01-22 17:44:00,
2013-01-22 09:49:00,27.3,26.1,29.56,ESE,108,0.0,0.0,95,0.00,,---,0.00,VWS V14.01,2013-01-22 17:49:00,
2013-01-22 09:54:00,27.3,26.1,29.56,ESE,109,0.0,0.0,95,0.00,,---,0.00,VWS V14.01,2013-01-22 17:54:00,
2013-01-22 09:59:00,27.7,26.4,29.56,ESE,109,0.0,0.0,95,0.00,,---,0.00,VWS V14.01,2013-01-22 17:59:00,
2013-01-22 10:04:00,28.0,26.8,29.56,ESE,109,0.0,0.0,95,0.00,,---,0.00,VWS V14.01,2013-01-22 18:04:00,
2013-01-22 10:09:00,28.0,26.8,29.56,ESE,109,0.0,0.0,95,0.00,,---,0.00,VWS V14.01,2013-01-22 18:09:00,
2013-01-22 10:13:00,28.6,27.3,29.56,ESE,109,0.0,0.0,95,0.00,,---,0.00,VWS V14.01,2013-01-22 18:13:00,
2013-01-22 10:18:00,28.6,27.3,29.56,ESE,109,0.0,0.0,95,0.00,,---,0.00,VWS V14.01,2013-01-22 18:18:00,
2013-01-22 10:23:00,28.9,27.7,29.56,ESE,108,0.0,0.0,95,0.00,,---,0.00,VWS V14.01,2013-01-22 18:23:00,
2013-01-22 10:28:00,28.9,27.7,29.56,ESE,108,0.0,0.0,95,0.00,,---,0.00,VWS V14.01,2013-01-22 18:28:00,
2013-01-22 10:33:00,29.5,28.5,29.56,ESE,108,0.0,0.0,96,0.00,,---,0.00,VWS V14.01,2013-01-22 18:33:00,
2013-01-22 10:38:00,29.5,28.5,29.56,ESE,108,0.0,0.0,96,0.00,,---,0.00,VWS V14.01,2013-01-22 18:38:00,
2013-01-22 10:43:00,29.8,28.8,29.56,ESE,108,0.0,0.0,96,0.00,,---,0.00,VWS V14.01,2013-01-22 18:43:00,
2013-01-22 10:48:00,30.2,29.2,29.56,ESE,108,0.0,0.0,96,0.00,,---,0.00,VWS V14.01,2013-01-22 18:48:00,
2013-01-22 10:53:00,30.2,29.2,29.56,ESE,108,0.0,0.0,96,0.00,,---,0.00,VWS V14.01,2013-01-22 18:53:00,
2013-01-22 10:58:00,30.7,29.7,29.56,ESE,108,0.0,0.0,96,0.00,,---,0.00,VWS V14.01,2013-01-22 18:58:00,
2013-01-22 11:03:00,30.7,29.7,29.56,ESE,108,0.0,0.0,96,0.00,,---,0.00,VWS V14.01,2013-01-22 19:03:00,
2013-01-22 11:08:00,31.1,30.1,29.56,ESE,108,0.0,0.0,96,0.00,,---,0.00,VWS V14.01,2013-01-22 19:08:00,
2013-01-22 11:13:00,31.3,30.3,29.56,ESE,108,0.0,0.0,96,0.00,,---,0.00,VWS V14.01,2013-01-22 19:13:00,
2013-01-22 11:18:00,31.6,30.6,29.56,ESE,108,0.0,0.0,96,0.00,,---,0.00,VWS V14.01,2013-01-22 19:18:00,
2013-01-22 11:23:00,31.6,30.6,29.56,ESE,108,0.0,0.0,96,0.00,,---,0.00,VWS V14.01,2013-01-22 19:23:00,
2013-01-22 11:28:00,32.2,31.2,29.56,ESE,108,0.0,0.0,96,0.00,,---,0.00,VWS V14.01,2013-01-22 19:28:00,
2013-01-22 11:33:00,32.2,31.2,29.56,ESE,108,0.0,0.0,96,0.00,,---,0.00,VWS V14.01,2013-01-22 19:33:00,
2013-01-22 11:38:00,32.4,31.4,29.56,ESE,108,0.0,0.0,96,0.00,,---,0.00,VWS V14.01,2013-01-22 19:38:00,
2013-01-22 11:43:00,32.5,31.8,29.56,ESE,108,0.0,0.0,97,0.00,,---,0.00,VWS V14.01,2013-01-22 19:43:00,
2013-01-22 11:48:00,32.5,31.8,29.56,NNE,17,0.0,0.0,97,0.00,,---,0.00,VWS V14.01,2013-01-22 19:48:00,
2013-01-22 11:53:00,32.4,31.4,29.56,NNE,23,0.0,0.0,96,0.00,,---,0.00,VWS V14.01,2013-01-22 19:53:00,
2013-01-22 11:58:00,32.4,31.4,29.56,North,1,0.0,0.0,96,0.00,,---,0.00,VWS V14.01,2013-01-22 19:58:00,
2013-01-22 12:03:00,32.7,32.0,29.56,North,1,0.0,0.0,97,0.00,,---,0.00,VWS V14.01,2013-01-22 20:03:00,
2013-01-22 12:08:00,32.7,32.0,29.56,West,280,0.0,0.0,97,0.00,,---,0.00,VWS V14.01,2013-01-22 20:08:00,
2013-01-22 12:13:00,32.9,32.1,29.56,West,280,0.0,0.0,97,0.00,,---,0.00,VWS V14.01,2013-01-22 20:13:00,
2013-01-22 12:18:00,32.9,32.1,29.53,West,280,0.0,0.0,97,0.00,,---,0.00,VWS V14.01,2013-01-22 20:18:00,
2013-01-22 12:23:00,32.9,32.1,29.53,West,281,0.0,0.0,97,0.00,,---,0.00,VWS V14.01,2013-01-22 20:23:00,
2013-01-22 12:28:00,33.3,32.5,29.53,West,281,0.0,0.0,97,0.00,,---,0.00,VWS V14.01,2013-01-22 20:28:00,
2013-01-22 12:33:00,33.3,32.5,29.53,West,281,0.0,0.0,97,0.00,,---,0.00,VWS V14.01,2013-01-22 20:33:00,
2013-01-22 12:38:00,33.4,32.7,29.53,West,281,0.0,0.0,97,0.00,,---,0.00,VWS V14.01,2013-01-22 20:38:00,
2013-01-22 12:43:00,33.4,32.7,29.53,West,281,0.0,0.0,97,0.00,,---,0.00,VWS V14.01,2013-01-22 20:43:00,
2013-01-22 12:48:00,33.4,32.7,29.53,West,281,0.0,0.0,97,0.00,,---,0.00,VWS V14.01,2013-01-22 20:48:00,
2013-01-22 12:53:00,33.8,33.0,29.53,West,281,0.0,0.0,97,0.00,,---,0.00,VWS V14.01,2013-01-22 20:53:00,
2013-01-22 12:58:00,33.8,33.0,29.53,West,281,0.0,0.0,97,0.00,,---,0.00,VWS V14.01,2013-01-22 20:58:00,
2013-01-22 13:03:00,33.8,33.0,29.53,West,281,0.0,0.0,97,0.00,,---,0.00,VWS V14.01,2013-01-22 21:03:00,
2013-01-22 13:08:00,33.8,33.0,29.53,West,281,0.0,0.0,97,0.00,,---,0.00,VWS V14.01,2013-01-22 21:08:00,
2013-01-22 13:13:00,33.8,33.0,29.53,West,281,0.0,0.0,97,0.00,,---,0.00,VWS V14.01,2013-01-22 21:13:00,
2013-01-22 13:18:00,34.2,33.4,29.53,WNW,292,0.0,0.0,97,0.00,,---,0.00,VWS V14.01,2013-01-22 21:18:00,
2013-01-22 13:23:00,34.2,33.4,29.53,WNW,292,0.0,0.0,97,0.00,,---,0.00,VWS V14.01,2013-01-22 21:23:00,
2013-01-22 13:28:00,34.2,33.4,29.53,WNW,291,0.0,0.0,97,0.00,,---,0.00,VWS V14.01,2013-01-22 21:28:00,
2013-01-22 13:32:00,34.2,33.4,29.53,WNW,292,0.0,0.0,97,0.00,,---,0.00,VWS V14.01,2013-01-22 21:32:00,
2013-01-22 13:37:00,34.2,33.4,29.53,WNW,291,0.0,0.0,97,0.00,,---,0.00,VWS V14.01,2013-01-22 21:37:00,
2013-01-22 13:42:00,34.5,33.8,29.53,WNW,291,0.0,0.0,97,0.00,,---,0.00,VWS V14.01,2013-01-22 21:42:00,
2013-01-22 13:47:00,34.5,33.8,29.50,WNW,291,0.0,0.0,97,0.00,,---,0.00,VWS V14.01,2013-01-22 21:47:00,
2013-01-22 13:52:00,34.5,33.8,29.50,WNW,292,0.0,0.0,97,0.00,,---,0.00,VWS V14.01,2013-01-22 21:52:00,
2013-01-22 13:57:00,34.5,33.8,29.50,West,272,0.0,0.0,97,0.00,,---,0.00,VWS V14.01,2013-01-22 21:57:00,
2013-01-22 14:02:00,34.5,33.8,29.50,West,272,0.0,0.0,97,0.00,,---,0.00,VWS V14.01,2013-01-22 22:02:00,
2013-01-22 14:07:00,34.5,33.8,29.50,SW,227,0.0,0.0,97,0.00,,---,0.00,VWS V14.01,2013-01-22 22:07:00,
2013-01-22 14:12:00,34.5,33.8,29.50,WSW,244,0.0,0.0,97,0.00,,---,0.00,VWS V14.01,2013-01-22 22:12:00,
2013-01-22 14:17:00,34.5,33.8,29.50,WSW,244,0.0,0.0,97,0.00,,---,0.00,VWS V14.01,2013-01-22 22:17:00,
2013-01-22 14:22:00,34.5,33.8,29.50,WSW,244,0.0,0.0,97,0.00,,---,0.00,VWS V14.01,2013-01-22 22:22:00,
2013-01-22 14:27:00,34.5,33.8,29.50,WSW,244,0.0,0.0,97,0.00,,---,0.00,VWS V14.01,2013-01-22 22:27:00,
2013-01-22 14:32:00,34.5,33.8,29.50,WSW,244,0.0,0.0,97,0.00,,---,0.00,VWS V14.01,2013-01-22 22:32:00,
2013-01-22 14:37:00,34.5,33.8,29.50,WSW,244,0.0,0.0,97,0.00,,---,0.00,VWS V14.01,2013-01-22 22:37:00,
2013-01-22 14:42:00,34.5,33.8,29.50,WSW,244,0.0,0.0,97,0.00,,---,0.00,VWS V14.01,2013-01-22 22:42:00,
2013-01-22 14:47:00,34.5,33.8,29.50,WSW,244,0.0,0.0,97,0.00,,---,0.00,VWS V14.01,2013-01-22 22:47:00,
2013-01-22 14:52:00,34.5,33.8,29.50,WSW,244,0.0,0.0,97,0.00,,---,0.00,VWS V14.01,2013-01-22 22:52:00,
2013-01-22 14:57:00,34.5,33.8,29.50,WSW,244,0.0,0.0,97,0.00,,---,0.00,VWS V14.01,2013-01-22 22:57:00,
2013-01-22 15:02:00,34.5,33.8,29.50,WSW,244,0.0,0.0,97,0.00,,---,0.00,VWS V14.01,2013-01-22 23:02:00,
2013-01-22 15:07:00,34.5,33.8,29.50,WSW,244,0.0,0.0,97,0.00,,---,0.00,VWS V14.01,2013-01-22 23:07:00,
2013-01-22 15:12:00,34.5,33.8,29.50,WSW,244,0.0,0.0,97,0.00,,---,0.00,VWS V14.01,2013-01-22 23:12:00,
2013-01-22 15:17:00,34.5,33.8,29.47,WSW,244,0.0,0.0,97,0.00,,---,0.00,VWS V14.01,2013-01-22 23:17:00,
2013-01-22 15:22:00,34.5,33.8,29.47,WSW,244,0.0,0.0,97,0.00,,---,0.00,VWS V14.01,2013-01-22 23:22:00,
2013-01-22 15:27:00,34.5,33.8,29.47,WSW,244,0.0,0.0,97,0.00,,---,0.00,VWS V14.01,2013-01-22 23:27:00,
2013-01-22 15:32:00,34.5,33.8,29.47,WSW,244,0.0,0.0,97,0.00,,---,0.00,VWS V14.01,2013-01-22 23:32:00,
2013-01-22 15:37:00,34.5,33.8,29.47,WSW,244,0.0,0.0,97,0.00,,---,0.00,VWS V14.01,2013-01-22 23:37:00,
2013-01-22 15:42:00,34.5,33.8,29.47,WSW,244,0.0,0.0,97,0.00,,---,0.00,VWS V14.01,2013-01-22 23:42:00,
2013-01-22 15:47:00,34.5,33.8,29.47,WSW,244,0.0,0.0,97,0.00,,---,0.00,VWS V14.01,2013-01-22 23:47:00,
2013-01-22 15:52:00,34.5,33.8,29.47,WSW,244,0.0,0.0,97,0.00,,---,0.00,VWS V14.01,2013-01-22 23:52:00,
2013-01-22 15:57:00,34.5,33.8,29.47,WSW,244,2.2,2.2,97,0.00,,---,0.00,VWS V14.01,2013-01-22 23:57:00,
2013-01-22 16:02:00,34.5,33.8,29.47,WSW,244,0.0,0.0,97,0.00,,---,0.00,VWS V14.01,2013-01-23 00:02:00,
2013-01-22 16:07:00,34.5,33.8,29.47,WSW,244,0.0,0.0,97,0.00,,---,0.00,VWS V14.01,2013-01-23 00:07:00,
2013-01-22 16:12:00,34.5,33.8,29.47,WSW,244,0.0,0.0,97,0.00,,---,0.00,VWS V14.01,2013-01-23 00:12:00,
2013-01-22 16:17:00,34.5,33.8,29.47,WSW,244,0.0,0.0,97,0.00,,---,0.00,VWS V14.01,2013-01-23 00:17:00,
2013-01-22 16:22:00,34.5,33.8,29.47,WSW,244,0.0,0.0,97,0.00,,---,0.00,VWS V14.01,2013-01-23 00:22:00,
2013-01-22 16:27:00,34.5,33.8,29.47,WSW,244,0.0,0.0,97,0.00,,---,0.00,VWS V14.01,2013-01-23 00:27:00,
2013-01-22 16:32:00,34.5,33.8,29.47,WSW,244,0.0,0.0,97,0.00,,---,0.00,VWS V14.01,2013-01-23 00:32:00,
2013-01-22 16:37:00,34.5,33.8,29.47,WSW,244,0.0,0.0,97,0.00,,---,0.00,VWS V14.01,2013-01-23 00:37:00,
2013-01-22 16:42:00,34.5,33.8,29.47,WSW,244,0.0,0.0,97,0.00,,---,0.00,VWS V14.01,2013-01-23 00:42:00,
2013-01-22 16:47:00,34.5,33.8,29.47,WSW,244,0.0,0.0,97,0.00,,---,0.00,VWS V14.01,2013-01-23 00:47:00,
2013-01-22 16:52:00,34.5,33.8,29.47,WSW,244,0.0,0.0,97,0.00,,---,0.00,VWS V14.01,2013-01-23 00:52:00,
2013-01-22 16:57:00,34.5,33.8,29.47,WSW,244,0.0,0.0,97,0.00,,---,0.00,VWS V14.01,2013-01-23 00:57:00,
2013-01-22 17:02:00,34.5,33.8,29.47,WSW,244,0.0,0.0,97,0.00,,---,0.00,VWS V14.01,2013-01-23 01:02:00,
2013-01-22 17:07:00,34.5,33.8,29.47,WSW,244,0.0,0.0,97,0.00,,---,0.00,VWS V14.01,2013-01-23 01:07:00,
2013-01-22 17:12:00,34.5,33.8,29.47,WSW,244,0.0,0.0,97,0.00,,---,0.00,VWS V14.01,2013-01-23 01:12:00,
2013-01-22 17:17:00,34.5,33.8,29.47,WSW,244,0.0,0.0,97,0.00,,---,0.00,VWS V14.01,2013-01-23 01:17:00,
2013-01-22 17:22:00,34.5,33.8,29.47,WSW,244,0.0,0.0,97,0.00,,---,0.00,VWS V14.01,2013-01-23 01:22:00,
2013-01-22 17:27:00,34.5,33.8,29.47,WSW,244,0.0,0.0,97,0.00,,---,0.00,VWS V14.01,2013-01-23 01:27:00,
2013-01-22 17:32:00,34.5,33.8,29.47,WSW,244,0.0,0.0,97,0.00,,---,0.00,VWS V14.01,2013-01-23 01:32:00,
2013-01-22 17:37:00,34.5,33.8,29.47,WSW,244,0.0,0.0,97,0.00,,---,0.00,VWS V14.01,2013-01-23 01:37:00,
2013-01-22 17:42:00,34.5,33.8,29.44,WSW,244,0.0,0.0,97,0.00,,---,0.00,VWS V14.01,2013-01-23 01:42:00,
2013-01-22 17:47:00,34.5,33.8,29.44,WSW,244,0.0,0.0,97,0.00,,---,0.00,VWS V14.01,2013-01-23 01:47:00,
2013-01-22 17:52:00,34.5,33.8,29.44,WSW,244,0.0,0.0,97,0.00,,---,0.00,VWS V14.01,2013-01-23 01:52:00,
2013-01-22 17:57:00,34.5,33.8,29.44,WSW,244,0.0,0.0,97,0.00,,---,0.00,VWS V14.01,2013-01-23 01:57:00,
2013-01-22 18:02:00,34.5,33.8,29.44,WSW,244,0.0,0.0,97,0.00,,---,0.00,VWS V14.01,2013-01-23 02:02:00,
2013-01-22 18:07:00,34.5,33.8,29.44,WSW,244,0.0,0.0,97,0.00,,---,0.00,VWS V14.01,2013-01-23 02:07:00,
2013-01-22 18:12:00,34.5,33.8,29.44,WSW,244,0.0,0.0,97,0.00,,---,0.00,VWS V14.01,2013-01-23 02:12:00,
2013-01-22 18:17:00,34.5,33.8,29.44,WSW,244,0.0,0.0,97,0.00,,---,0.00,VWS V14.01,2013-01-23 02:17:00,
2013-01-22 18:22:00,34.5,33.8,29.44,WSW,244,0.0,0.0,97,0.00,,---,0.00,VWS V14.01,2013-01-23 02:22:00,
2013-01-22 18:27:00,34.5,33.8,29.44,WSW,244,0.0,0.0,97,0.00,,---,0.00,VWS V14.01,2013-01-23 02:27:00,
2013-01-22 18:32:00,34.5,33.8,29.44,WSW,244,0.0,0.0,97,0.00,,---,0.00,VWS V14.01,2013-01-23 02:32:00,
2013-01-22 18:37:00,34.5,33.8,29.44,WSW,244,0.0,0.0,97,0.00,,---,0.00,VWS V14.01,2013-01-23 02:37:00,
2013-01-22 18:42:00,34.5,33.8,29.44,WSW,244,0.0,0.0,97,0.00,,---,0.00,VWS V14.01,2013-01-23 02:42:00,
2013-01-22 18:47:00,34.5,33.8,29.44,WSW,244,0.0,0.0,97,0.00,,---,0.00,VWS V14.01,2013-01-23 02:47:00,
2013-01-22 18:52:00,34.5,33.8,29.44,WSW,244,0.0,0.0,97,0.00,,---,0.00,VWS V14.01,2013-01-23 02:52:00,
2013-01-22 18:57:00,34.5,33.8,29.44,WSW,244,0.0,0.0,97,0.00,,---,0.00,VWS V14.01,2013-01-23 02:57:00,
2013-01-22 19:02:00,34.5,33.8,29.44,WSW,244,0.0,0.0,97,0.00,,---,0.00,VWS V14.01,2013-01-23 03:02:00,
2013-01-22 19:07:00,34.5,33.8,29.44,WSW,244,0.0,0.0,97,0.00,,---,0.00,VWS V14.01,2013-01-23 03:07:00,
2013-01-22 19:12:00,34.5,33.8,29.44,WSW,244,0.0,0.0,97,0.00,,---,0.00,VWS V14.01,2013-01-23 03:12:00,
2013-01-22 19:17:00,34.5,33.8,29.44,WSW,244,0.0,0.0,97,0.00,,---,0.00,VWS V14.01,2013-01-23 03:17:00,
2013-01-22 19:22:00,34.5,33.8,29.44,WSW,244,0.0,0.0,97,0.00,,---,0.00,VWS V14.01,2013-01-23 03:22:00,
2013-01-22 19:27:00,34.5,33.8,29.44,WSW,244,0.0,0.0,97,0.00,,---,0.00,VWS V14.01,2013-01-23 03:27:00,
2013-01-22 19:32:00,34.5,33.8,29.44,WSW,244,0.0,0.0,97,0.00,,---,0.00,VWS V14.01,2013-01-23 03:32:00,
2013-01-22 19:37:00,34.5,33.8,29.44,WSW,244,0.0,0.0,97,0.00,,---,0.00,VWS V14.01,2013-01-23 03:37:00,
2013-01-22 19:42:00,34.5,33.8,29.44,WSW,244,0.0,0.0,97,0.00,,---,0.00,VWS V14.01,2013-01-23 03:42:00,
2013-01-22 19:47:00,34.5,33.8,29.44,WSW,244,0.0,0.0,97,0.00,,---,0.00,VWS V14.01,2013-01-23 03:47:00,
2013-01-22 19:52:00,34.5,33.8,29.41,WSW,244,0.0,0.0,97,0.00,,---,0.00,VWS V14.01,2013-01-23 03:52:00,
2013-01-22 19:57:00,34.5,33.8,29.41,WSW,244,0.0,0.0,97,0.00,,---,0.00,VWS V14.01,2013-01-23 03:57:00,
2013-01-22 20:02:00,34.5,33.8,29.41,WSW,244,0.0,0.0,97,0.00,,---,0.00,VWS V14.01,2013-01-23 04:02:00,
2013-01-22 20:07:00,34.5,33.8,29.41,WSW,244,0.0,0.0,97,0.00,,---,0.00,VWS V14.01,2013-01-23 04:07:00,
2013-01-22 20:12:00,34.5,33.8,29.41,WSW,244,0.0,0.0,97,0.00,,---,0.00,VWS V14.01,2013-01-23 04:12:00,
2013-01-22 20:17:00,33.3,32.8,29.41,WSW,244,0.0,0.0,98,0.00,,---,0.00,VWS V14.01,2013-01-23 04:17:00,
2013-01-22 20:22:00,33.3,32.8,29.41,WSW,244,0.0,0.0,98,0.00,,---,0.00,VWS V14.01,2013-01-23 04:22:00,
2013-01-22 20:27:00,33.3,32.8,29.41,WSW,244,2.2,2.2,98,0.00,,---,0.00,VWS V14.01,2013-01-23 04:27:00,
2013-01-22 20:32:00,33.4,32.9,29.44,WSW,244,0.0,0.0,98,0.00,,---,0.00,VWS V14.01,2013-01-23 04:32:00,
2013-01-22 20:37:00,33.4,32.9,29.44,WSW,244,0.0,0.0,98,0.00,,---,0.00,VWS V14.01,2013-01-23 04:37:00,
2013-01-22 20:42:00,33.4,32.9,29.44,WSW,244,0.0,0.0,98,0.00,,---,0.00,VWS V14.01,2013-01-23 04:42:00,
2013-01-22 20:47:00,33.4,32.9,29.41,WSW,244,0.0,0.0,98,0.00,,---,0.00,VWS V14.01,2013-01-23 04:47:00,
2013-01-22 20:52:00,33.4,32.9,29.41,WSW,244,0.0,0.0,98,0.00,,---,0.00,VWS V14.01,2013-01-23 04:52:00,
2013-01-22 20:57:00,33.4,32.9,29.41,WSW,244,0.0,0.0,98,0.00,,---,0.00,VWS V14.01,2013-01-23 04:57:00,
2013-01-22 21:00:00,33.4,32.9,29.41,WSW,244,0.0,0.0,98,0.00,,---,0.00,VWS V14.01,2013-01-23 05:00:00,
2013-01-22 21:01:00,33.4,32.9,29.41,WSW,244,0.0,0.0,98,0.00,,---,0.00,VWS V14.01,2013-01-23 05:01:00,
2013-01-22 21:03:00,33.4,32.9,29.41,WSW,244,0.0,0.0,98,0.00,,---,0.00,VWS V14.01,2013-01-23 05:03:00,
2013-01-22 21:08:00,33.4,32.9,29.41,WSW,244,0.0,0.0,98,0.00,,---,0.00,VWS V14.01,2013-01-23 05:08:00,
2013-01-22 21:13:00,33.4,32.9,29.41,WSW,245,0.0,0.0,98,0.00,,---,0.00,VWS V14.01,2013-01-23 05:13:00,
2013-01-22 21:18:00,33.4,32.9,29.41,WSW,244,0.0,0.0,98,0.00,,---,0.00,VWS V14.01,2013-01-23 05:18:00,
2013-01-22 21:23:00,33.4,32.9,29.41,WSW,244,0.0,0.0,98,0.00,,---,0.00,VWS V14.01,2013-01-23 05:23:00,
2013-01-22 21:28:00,33.6,33.1,29.41,WSW,244,0.0,0.0,98,0.00,,---,0.00,VWS V14.01,2013-01-23 05:28:00,
2013-01-22 21:33:00,33.6,33.1,29.41,WSW,245,0.0,0.0,98,0.00,,---,0.00,VWS V14.01,2013-01-23 05:33:00,
2013-01-22 21:38:00,33.8,33.3,29.41,WSW,245,0.0,0.0,98,0.00,,---,0.00,VWS V14.01,2013-01-23 05:38:00,
2013-01-22 21:43:00,33.8,33.3,29.41,WSW,244,0.0,0.0,98,0.00,,---,0.00,VWS V14.01,2013-01-23 05:43:00,
2013-01-22 21:48:00,33.8,33.3,29.41,WSW,244,0.0,0.0,98,0.00,,---,0.00,VWS V14.01,2013-01-23 05:48:00,
2013-01-22 21:53:00,33.8,33.3,29.41,WSW,244,0.0,0.0,98,0.00,,---,0.00,VWS V14.01,2013-01-23 05:53:00,
2013-01-22 21:58:00,33.8,33.3,29.41,WSW,244,0.0,0.0,98,0.00,,---,0.00,VWS V14.01,2013-01-23 05:58:00,
2013-01-22 22:03:00,33.8,33.3,29.41,WSW,244,0.0,0.0,98,0.00,,---,0.00,VWS V14.01,2013-01-23 06:03:00,
2013-01-22 22:08:00,33.8,33.3,29.41,WSW,244,0.0,0.0,98,0.00,,---,0.00,VWS V14.01,2013-01-23 06:08:00,
2013-01-22 22:13:00,34.0,33.5,29.41,WSW,244,0.0,0.0,98,0.00,,---,0.00,VWS V14.01,2013-01-23 06:13:00,
2013-01-22 22:18:00,34.0,33.5,29.41,WSW,244,0.0,0.0,98,0.00,,---,0.00,VWS V14.01,2013-01-23 06:18:00,
2013-01-22 22:23:00,34.0,33.5,29.41,WSW,244,0.0,0.0,98,0.00,,---,0.00,VWS V14.01,2013-01-23 06:23:00,
2013-01-22 22:28:00,33.8,33.3,29.41,WSW,244,0.0,0.0,98,0.00,,---,0.00,VWS V14.01,2013-01-23 06:28:00,
2013-01-22 22:33:00,34.0,33.5,29.41,WSW,244,0.0,0.0,98,0.00,,---,0.00,VWS V14.01,2013-01-23 06:33:00,
2013-01-22 22:38:00,34.0,33.5,29.41,WSW,244,0.0,0.0,98,0.00,,---,0.00,VWS V14.01,2013-01-23 06:38:00,
2013-01-22 22:43:00,33.8,33.3,29.41,WSW,244,0.0,0.0,98,0.00,,---,0.00,VWS V14.01,2013-01-23 06:43:00,
2013-01-22 22:48:00,34.0,33.5,29.41,WSW,244,0.0,0.0,98,0.00,,---,0.00,VWS V14.01,2013-01-23 06:48:00,
2013-01-22 22:53:00,34.0,33.5,29.41,WSW,244,0.0,0.0,98,0.00,,---,0.00,VWS V14.01,2013-01-23 06:53:00,
2013-01-22 22:58:00,34.0,33.5,29.41,WSW,244,0.0,0.0,98,0.00,,---,0.00,VWS V14.01,2013-01-23 06:58:00,
2013-01-22 23:03:00,34.2,33.7,29.41,WSW,244,0.0,0.0,98,0.00,,---,0.00,VWS V14.01,2013-01-23 07:03:00,
2013-01-22 23:08:00,34.2,33.7,29.41,WSW,244,0.0,0.0,98,0.00,,---,0.00,VWS V14.01,2013-01-23 07:08:00,
2013-01-22 23:13:00,34.3,33.8,29.41,WSW,244,0.0,0.0,98,0.00,,---,0.00,VWS V14.01,2013-01-23 07:13:00,
2013-01-22 23:18:00,34.2,33.7,29.41,WSW,244,0.0,0.0,98,0.00,,---,0.00,VWS V14.01,2013-01-23 07:18:00,
2013-01-22 23:23:00,34.2,33.7,29.41,WSW,244,0.0,0.0,98,0.00,,---,0.00,VWS V14.01,2013-01-23 07:23:00,
2013-01-22 23:28:00,34.2,33.7,29.41,WSW,244,0.0,0.0,98,0.00,,---,0.00,VWS V14.01,2013-01-23 07:28:00,
2013-01-22 23:33:00,34.2,33.7,29.41,WSW,244,0.0,0.0,98,0.00,,---,0.00,VWS V14.01,2013-01-23 07:33:00,
2013-01-22 23:38:00,34.3,33.8,29.41,WSW,244,0.0,0.0,98,0.00,,---,0.00,VWS V14.01,2013-01-23 07:38:00,
2013-01-22 23:43:00,34.2,33.7,29.41,WSW,244,0.0,0.0,98,0.00,,---,0.00,VWS V14.01,2013-01-23 07:43:00,
2013-01-22 23:48:00,34.2,33.7,29.41,WSW,244,0.0,0.0,98,0.00,,---,0.00,VWS V14.01,2013-01-23 07:48:00,
2013-01-22 23:53:00,34.2,33.7,29.41,WSW,244,0.0,0.0,98,0.00,,---,0.00,VWS V14.01,2013-01-23 07:53:00,
2013-01-22 23:58:00,34.2,33.7,29.41,WSW,244,0.0,0.0,98,0.00,,---,0.00,VWS V14.01,2013-01-23 07:58:00,